Time,TemperatureF,DewpointF,PressureIn,WindDirection,WindDirectionDegrees,WindSpeedMPH,WindSpeedGustMPH,Humidity,HourlyPrecipIn,Conditions,Clouds,dailyrainin,SolarRadiationWatts/m^2,SoftwareType,DateUTC
2017-03-24 00:04:00,49.1,41.9,29.96,SSW,198,6.0,16.0,76,0.00,,,0.00,0,WeatherCatV2.41B14,2017-03-24 05:04:00,
2017-03-24 00:09:00,49.1,41.9,29.96,SE,141,18.0,21.0,76,0.00,,,0.00,0,WeatherCatV2.41B14,2017-03-24 05:09:00,
2017-03-24 00:14:00,49.1,42.2,29.96,SSW,211,6.0,21.0,77,0.00,,,0.00,0,WeatherCatV2.41B14,2017-03-24 05:14:00,
2017-03-24 00:19:00,49.1,41.9,29.96,SSW,203,6.0,16.0,76,0.00,,,0.00,0,WeatherCatV2.41B14,2017-03-24 05:19:00,
2017-03-24 00:24:00,49.1,42.2,29.95,South,170,13.0,24.0,77,0.00,,,0.00,0,WeatherCatV2.41B14,2017-03-24 05:24:00,
2017-03-24 00:29:00,49.0,42.1,29.95,SSW,196,8.0,16.0,77,0.00,,,0.00,0,WeatherCatV2.41B14,2017-03-24 05:29:00,
2017-03-24 00:34:00,49.2,42.3,29.96,SSW,194,11.0,22.0,77,0.00,,,0.00,0,WeatherCatV2.41B14,2017-03-24 05:34:00,
2017-03-24 00:39:00,49.0,42.1,29.96,South,175,9.0,20.0,77,0.00,,,0.00,0,WeatherCatV2.41B14,2017-03-24 05:39:00,
2017-03-24 00:44:00,49.0,42.1,29.96,SSW,193,7.0,19.0,77,0.00,,,0.00,0,WeatherCatV2.41B14,2017-03-24 05:44:00,
2017-03-24 00:49:00,48.9,42.3,29.96,SSW,198,7.0,21.0,78,0.00,,,0.00,0,WeatherCatV2.41B14,2017-03-24 05:49:00,
2017-03-24 00:54:00,48.8,42.2,29.95,South,178,10.0,16.0,78,0.00,,,0.00,0,WeatherCatV2.41B14,2017-03-24 05:54:00,
2017-03-24 00:59:00,48.8,42.2,29.95,SSE,157,9.0,19.0,78,0.00,,,0.00,0,WeatherCatV2.41B14,2017-03-24 05:59:00,
2017-03-24 01:04:00,48.8,42.2,29.95,SSW,196,6.0,18.0,78,0.00,,,0.00,0,WeatherCatV2.41B14,2017-03-24 06:04:00,
2017-03-24 01:09:00,48.8,42.2,29.95,South,186,7.0,23.0,78,0.00,,,0.00,0,WeatherCatV2.41B14,2017-03-24 06:09:00,
2017-03-24 01:14:00,48.9,42.3,29.95,SSW,193,12.0,17.0,78,0.00,,,0.00,0,WeatherCatV2.41B14,2017-03-24 06:14:00,
2017-03-24 01:19:00,49.0,42.8,29.94,South,171,12.0,19.0,79,0.00,,,0.00,0,WeatherCatV2.41B14,2017-03-24 06:19:00,
2017-03-24 01:24:00,49.0,42.4,29.94,SSE,161,6.0,16.0,78,0.00,,,0.00,0,WeatherCatV2.41B14,2017-03-24 06:24:00,
2017-03-24 01:29:00,49.1,42.5,29.95,South,177,13.0,21.0,78,0.00,,,0.00,0,WeatherCatV2.41B14,2017-03-24 06:29:00,
2017-03-24 01:34:00,49.1,42.5,29.94,SSW,206,11.0,12.0,78,0.00,,,0.00,0,WeatherCatV2.41B14,2017-03-24 06:34:00,
2017-03-24 01:39:00,49.3,42.7,29.94,SSW,205,6.0,15.0,78,0.00,,,0.00,0,WeatherCatV2.41B14,2017-03-24 06:39:00,
2017-03-24 01:41:00,49.3,42.7,29.94,South,177,7.0,13.0,78,0.00,,,0.00,0,WeatherCatV2.41B14,2017-03-24 06:41:00,
2017-03-24 01:46:00,49.3,42.7,29.94,SSW,196,10.0,20.0,78,0.00,,,0.00,0,WeatherCatV2.41B14,2017-03-24 06:46:00,
2017-03-24 01:51:00,49.3,42.7,29.94,SSW,192,7.0,22.0,78,0.00,,,0.00,0,WeatherCatV2.41B14,2017-03-24 06:51:00,
2017-03-24 01:56:00,49.1,42.9,29.94,SSE,148,16.0,16.0,79,0.00,,,0.00,0,WeatherCatV2.41B14,2017-03-24 06:56:00,
2017-03-24 02:01:00,49.3,43.1,29.93,SSE,152,7.0,25.0,79,0.00,,,0.00,0,WeatherCatV2.41B14,2017-03-24 07:01:00,
2017-03-24 02:06:00,49.2,43.0,29.94,SSW,192,4.0,13.0,79,0.00,,,0.00,0,WeatherCatV2.41B14,2017-03-24 07:06:00,
2017-03-24 02:11:00,49.1,42.9,29.94,SSW,196,9.0,24.0,79,0.00,,,0.00,0,WeatherCatV2.41B14,2017-03-24 07:11:00,
2017-03-24 02:16:00,49.1,42.9,29.93,South,182,4.0,15.0,79,0.00,,,0.00,0,WeatherCatV2.41B14,2017-03-24 07:16:00,
2017-03-24 02:21:00,49.1,42.9,29.93,South,173,6.0,12.0,79,0.00,,,0.00,0,WeatherCatV2.41B14,2017-03-24 07:21:00,
2017-03-24 02:26:00,49.2,43.0,29.93,SSW,204,5.0,18.0,79,0.00,,,0.00,0,WeatherCatV2.41B14,2017-03-24 07:26:00,
2017-03-24 02:31:00,49.1,42.9,29.93,SSE,153,5.0,18.0,79,0.00,,,0.00,0,WeatherCatV2.41B14,2017-03-24 07:31:00,
2017-03-24 02:36:00,49.1,42.9,29.93,SSW,207,8.0,17.0,79,0.00,,,0.00,0,WeatherCatV2.41B14,2017-03-24 07:36:00,
2017-03-24 02:41:00,49.1,42.9,29.93,South,185,4.0,12.0,79,0.00,,,0.00,0,WeatherCatV2.41B14,2017-03-24 07:41:00,
2017-03-24 02:46:00,49.2,43.0,29.93,SSE,159,12.0,15.0,79,0.00,,,0.00,0,WeatherCatV2.41B14,2017-03-24 07:46:00,
2017-03-24 02:51:00,49.1,42.9,29.93,South,170,11.0,14.0,79,0.00,,,0.00,0,WeatherCatV2.41B14,2017-03-24 07:51:00,
2017-03-24 02:56:00,49.0,42.8,29.94,SW,215,4.0,14.0,79,0.00,,,0.00,0,WeatherCatV2.41B14,2017-03-24 07:56:00,
2017-03-24 03:01:00,49.0,43.1,29.94,South,190,6.0,16.0,80,0.00,,,0.00,0,WeatherCatV2.41B14,2017-03-24 08:01:00,
2017-03-24 03:06:00,48.8,42.9,29.93,SSW,201,7.0,12.0,80,0.00,,,0.00,0,WeatherCatV2.41B14,2017-03-24 08:06:00,
2017-03-24 03:11:00,48.8,42.9,29.93,South,177,10.0,10.0,80,0.00,,,0.00,0,WeatherCatV2.41B14,2017-03-24 08:11:00,
2017-03-24 03:16:00,48.8,42.9,29.93,South,190,8.0,14.0,80,0.00,,,0.00,0,WeatherCatV2.41B14,2017-03-24 08:16:00,
2017-03-24 03:21:00,49.0,43.1,29.93,South,177,11.0,14.0,80,0.00,,,0.00,0,WeatherCatV2.41B14,2017-03-24 08:21:00,
2017-03-24 03:22:00,48.9,43.0,29.93,South,178,9.0,15.0,80,0.00,,,0.00,0,WeatherCatV2.41B14,2017-03-24 08:22:00,
2017-03-24 03:27:00,49.0,43.1,29.92,SSW,198,14.0,16.0,80,0.00,,,0.00,0,WeatherCatV2.41B14,2017-03-24 08:27:00,
2017-03-24 03:32:00,48.9,43.0,29.92,SW,217,2.0,13.0,80,0.00,,,0.00,0,WeatherCatV2.41B14,2017-03-24 08:32:00,
2017-03-24 03:37:00,49.0,43.1,29.92,SSW,196,6.0,24.0,80,0.00,,,0.00,0,WeatherCatV2.41B14,2017-03-24 08:37:00,
2017-03-24 03:42:00,48.8,42.9,29.92,South,180,4.0,8.0,80,0.00,,,0.00,0,WeatherCatV2.41B14,2017-03-24 08:42:00,
2017-03-24 03:43:00,48.8,42.9,29.92,South,182,6.0,10.0,80,0.00,,,0.00,0,WeatherCatV2.41B14,2017-03-24 08:43:00,
2017-03-24 03:48:00,48.9,43.0,29.92,SSW,205,7.0,13.0,80,0.00,,,0.00,0,WeatherCatV2.41B14,2017-03-24 08:48:00,
2017-03-24 03:53:00,48.8,42.9,29.92,SW,217,3.0,9.0,80,0.00,,,0.00,0,WeatherCatV2.41B14,2017-03-24 08:53:00,
2017-03-24 03:58:00,48.9,43.0,29.92,SSW,213,5.0,9.0,80,0.00,,,0.00,0,WeatherCatV2.41B14,2017-03-24 08:58:00,
2017-03-24 04:03:00,49.0,43.4,29.92,SSW,201,3.0,15.0,81,0.00,,,0.00,0,WeatherCatV2.41B14,2017-03-24 09:03:00,
2017-03-24 04:08:00,49.1,43.2,29.92,SSW,201,5.0,16.0,80,0.00,,,0.00,0,WeatherCatV2.41B14,2017-03-24 09:08:00,
2017-03-24 04:13:00,49.1,43.2,29.92,SSW,205,8.0,14.0,80,0.00,,,0.00,0,WeatherCatV2.41B14,2017-03-24 09:13:00,
2017-03-24 04:18:00,49.0,43.1,29.92,SSW,202,9.0,12.0,80,0.00,,,0.00,0,WeatherCatV2.41B14,2017-03-24 09:18:00,
2017-03-24 04:23:00,49.0,43.4,29.92,SSW,207,6.0,10.0,81,0.00,,,0.00,0,WeatherCatV2.41B14,2017-03-24 09:23:00,
2017-03-24 04:28:00,49.1,43.2,29.93,SSW,212,10.0,10.0,80,0.00,,,0.00,0,WeatherCatV2.41B14,2017-03-24 09:28:00,
2017-03-24 04:33:00,49.1,43.5,29.93,SSW,200,8.0,10.0,81,0.00,,,0.00,0,WeatherCatV2.41B14,2017-03-24 09:33:00,
2017-03-24 04:38:00,49.2,43.6,29.93,SW,219,6.0,6.0,81,0.00,,,0.00,0,WeatherCatV2.41B14,2017-03-24 09:38:00,
2017-03-24 04:43:00,49.2,43.6,29.93,South,184,5.0,8.0,81,0.00,,,0.00,0,WeatherCatV2.41B14,2017-03-24 09:43:00,
2017-03-24 04:48:00,49.1,43.5,29.94,SSW,212,4.0,10.0,81,0.00,,,0.00,0,WeatherCatV2.41B14,2017-03-24 09:48:00,
2017-03-24 04:53:00,49.2,43.6,29.93,South,180,4.0,8.0,81,0.00,,,0.00,0,WeatherCatV2.41B14,2017-03-24 09:53:00,
2017-03-24 04:58:00,49.1,43.5,29.93,South,182,4.0,6.0,81,0.00,,,0.00,0,WeatherCatV2.41B14,2017-03-24 09:58:00,
2017-03-24 05:03:00,49.2,43.6,29.93,South,175,6.0,9.0,81,0.00,,,0.00,0,WeatherCatV2.41B14,2017-03-24 10:03:00,
2017-03-24 05:08:00,49.1,43.5,29.94,SSW,201,3.0,9.0,81,0.00,,,0.00,0,WeatherCatV2.41B14,2017-03-24 10:08:00,
2017-03-24 05:13:00,49.3,43.7,29.94,SSW,211,4.0,10.0,81,0.00,,,0.00,0,WeatherCatV2.41B14,2017-03-24 10:13:00,
2017-03-24 05:18:00,49.4,43.8,29.94,SSW,194,4.0,12.0,81,0.00,,,0.00,0,WeatherCatV2.41B14,2017-03-24 10:18:00,
2017-03-24 05:23:00,49.5,43.9,29.94,SSW,194,4.0,11.0,81,0.00,,,0.00,0,WeatherCatV2.41B14,2017-03-24 10:23:00,
2017-03-24 05:28:00,49.6,44.0,29.95,SSW,200,4.0,8.0,81,0.00,,,0.00,0,WeatherCatV2.41B14,2017-03-24 10:28:00,
2017-03-24 05:33:00,49.5,43.9,29.95,South,188,6.0,12.0,81,0.00,,,0.00,0,WeatherCatV2.41B14,2017-03-24 10:33:00,
2017-03-24 05:38:00,49.7,44.1,29.95,South,184,6.0,9.0,81,0.00,,,0.00,0,WeatherCatV2.41B14,2017-03-24 10:38:00,
2017-03-24 05:43:00,49.9,44.3,29.95,SSW,202,5.0,12.0,81,0.00,,,0.00,0,WeatherCatV2.41B14,2017-03-24 10:43:00,
2017-03-24 05:48:00,49.9,44.3,29.95,SSE,165,4.0,10.0,81,0.00,,,0.00,0,WeatherCatV2.41B14,2017-03-24 10:48:00,
2017-03-24 05:53:00,50.0,44.4,29.94,SSW,207,5.0,13.0,81,0.00,,,0.00,0,WeatherCatV2.41B14,2017-03-24 10:53:00,
2017-03-24 05:58:00,50.2,44.6,29.95,South,171,7.0,14.0,81,0.00,,,0.00,0,WeatherCatV2.41B14,2017-03-24 10:58:00,
2017-03-24 06:03:00,50.3,44.7,29.94,South,180,3.0,14.0,81,0.00,,,0.00,0,WeatherCatV2.41B14,2017-03-24 11:03:00,
2017-03-24 06:08:00,50.5,44.9,29.94,South,169,7.0,11.0,81,0.00,,,0.00,0,WeatherCatV2.41B14,2017-03-24 11:08:00,
2017-03-24 06:13:00,50.5,44.9,29.94,SSE,163,2.0,15.0,81,0.00,,,0.00,0,WeatherCatV2.41B14,2017-03-24 11:13:00,
2017-03-24 06:18:00,50.6,45.0,29.94,South,184,6.0,15.0,81,0.00,,,0.00,0,WeatherCatV2.41B14,2017-03-24 11:18:00,
2017-03-24 06:23:00,50.9,45.3,29.94,SSW,212,4.0,17.0,81,0.00,,,0.00,0,WeatherCatV2.41B14,2017-03-24 11:23:00,
2017-03-24 06:28:00,51.1,45.5,29.94,SSE,160,4.0,15.0,81,0.00,,,0.00,0,WeatherCatV2.41B14,2017-03-24 11:28:00,
2017-03-24 06:33:00,51.2,45.6,29.94,SSE,161,8.0,16.0,81,0.00,,,0.00,0,WeatherCatV2.41B14,2017-03-24 11:33:00,
2017-03-24 06:38:00,51.5,45.5,29.93,SSE,168,5.0,13.0,80,0.00,,,0.00,0,WeatherCatV2.41B14,2017-03-24 11:38:00,
2017-03-24 06:43:00,51.4,45.8,29.93,SSW,195,11.0,13.0,81,0.00,,,0.00,0,WeatherCatV2.41B14,2017-03-24 11:43:00,
2017-03-24 06:48:00,51.5,45.5,29.94,SSW,192,9.0,14.0,80,0.00,,,0.00,0,WeatherCatV2.41B14,2017-03-24 11:48:00,
2017-03-24 06:53:00,51.5,45.9,29.94,SSE,161,7.0,20.0,81,0.00,,,0.00,0,WeatherCatV2.41B14,2017-03-24 11:53:00,
2017-03-24 06:58:00,51.5,45.9,29.94,SSE,149,6.0,22.0,81,0.00,,,0.00,5,WeatherCatV2.41B14,2017-03-24 11:58:00,
2017-03-24 07:03:00,51.5,45.9,29.94,South,180,9.0,20.0,81,0.00,,,0.00,7,WeatherCatV2.41B14,2017-03-24 12:03:00,
2017-03-24 07:08:00,51.3,45.7,29.94,SSW,207,9.0,13.0,81,0.00,,,0.00,11,WeatherCatV2.41B14,2017-03-24 12:08:00,
2017-03-24 07:13:00,51.4,45.8,29.94,SSE,165,16.0,18.0,81,0.00,,,0.00,14,WeatherCatV2.41B14,2017-03-24 12:13:00,
2017-03-24 07:18:00,51.7,46.1,29.95,SSW,201,14.0,14.0,81,0.00,,,0.00,18,WeatherCatV2.41B14,2017-03-24 12:18:00,
2017-03-24 07:23:00,51.8,46.2,29.95,South,182,8.0,16.0,81,0.00,,,0.00,21,WeatherCatV2.41B14,2017-03-24 12:23:00,
2017-03-24 07:28:00,52.4,46.7,29.95,SSW,198,9.0,17.0,81,0.00,,,0.00,23,WeatherCatV2.41B14,2017-03-24 12:28:00,
2017-03-24 07:33:00,52.6,46.9,29.94,South,177,7.0,21.0,81,0.00,,,0.00,21,WeatherCatV2.41B14,2017-03-24 12:33:00,
2017-03-24 07:38:00,52.8,46.8,29.95,SSW,198,4.0,15.0,80,0.00,,,0.00,21,WeatherCatV2.41B14,2017-03-24 12:38:00,
2017-03-24 07:43:00,52.9,46.9,29.95,SSW,211,5.0,17.0,80,0.00,,,0.00,30,WeatherCatV2.41B14,2017-03-24 12:43:00,
2017-03-24 07:48:00,53.3,47.3,29.95,SSW,209,8.0,14.0,80,0.00,,,0.00,37,WeatherCatV2.41B14,2017-03-24 12:48:00,
2017-03-24 07:53:00,53.5,47.5,29.95,SSW,192,4.0,10.0,80,0.00,,,0.00,72,WeatherCatV2.41B14,2017-03-24 12:53:00,
2017-03-24 07:58:00,53.8,47.8,29.94,SSE,165,10.0,11.0,80,0.00,,,0.00,77,WeatherCatV2.41B14,2017-03-24 12:58:00,
2017-03-24 08:03:00,54.2,47.8,29.95,SSW,200,8.0,15.0,79,0.00,,,0.00,47,WeatherCatV2.41B14,2017-03-24 13:03:00,
2017-03-24 08:08:00,54.6,48.2,29.95,SSE,160,5.0,13.0,79,0.00,,,0.00,69,WeatherCatV2.41B14,2017-03-24 13:08:00,
2017-03-24 08:13:00,55.0,48.3,29.95,SSW,207,12.0,13.0,78,0.00,,,0.00,102,WeatherCatV2.41B14,2017-03-24 13:13:00,
2017-03-24 08:18:00,55.3,48.6,29.95,SSE,160,6.0,13.0,78,0.00,,,0.00,118,WeatherCatV2.41B14,2017-03-24 13:18:00,
2017-03-24 08:23:00,55.9,49.1,29.95,South,189,6.0,14.0,78,0.00,,,0.00,120,WeatherCatV2.41B14,2017-03-24 13:23:00,
2017-03-24 08:28:00,56.6,49.5,29.95,SSE,159,14.0,14.0,77,0.00,,,0.00,120,WeatherCatV2.41B14,2017-03-24 13:28:00,
2017-03-24 08:33:00,57.2,49.7,29.95,South,185,9.0,15.0,76,0.00,,,0.00,107,WeatherCatV2.41B14,2017-03-24 13:33:00,
2017-03-24 08:38:00,57.8,49.9,29.95,SSW,213,9.0,14.0,75,0.00,,,0.00,153,WeatherCatV2.41B14,2017-03-24 13:38:00,
2017-03-24 08:43:00,58.1,49.8,29.95,SSW,211,6.0,11.0,74,0.00,,,0.00,120,WeatherCatV2.41B14,2017-03-24 13:43:00,
2017-03-24 08:48:00,58.4,50.1,29.95,SSW,195,4.0,16.0,74,0.00,,,0.00,84,WeatherCatV2.41B14,2017-03-24 13:48:00,
2017-03-24 08:53:00,59.0,50.3,29.95,SSW,207,3.0,11.0,73,0.00,,,0.00,97,WeatherCatV2.41B14,2017-03-24 13:53:00,
2017-03-24 08:58:00,59.6,50.9,29.94,South,188,6.0,12.0,73,0.00,,,0.00,121,WeatherCatV2.41B14,2017-03-24 13:58:00,
2017-03-24 09:03:00,60.2,51.1,29.95,SW,219,6.0,13.0,72,0.00,,,0.00,165,WeatherCatV2.41B14,2017-03-24 14:03:00,
2017-03-24 09:08:00,60.6,51.1,29.94,SSW,213,8.0,10.0,71,0.00,,,0.00,227,WeatherCatV2.41B14,2017-03-24 14:08:00,
2017-03-24 09:13:00,60.9,51.0,29.95,SSW,210,6.0,13.0,70,0.00,,,0.00,125,WeatherCatV2.41B14,2017-03-24 14:13:00,
2017-03-24 09:18:00,61.3,51.4,29.95,SW,227,15.0,15.0,70,0.00,,,0.00,135,WeatherCatV2.41B14,2017-03-24 14:18:00,
2017-03-24 09:23:00,61.6,51.3,29.95,SSW,201,4.0,15.0,69,0.00,,,0.00,153,WeatherCatV2.41B14,2017-03-24 14:23:00,
2017-03-24 09:28:00,62.1,51.4,29.95,SW,219,8.0,17.0,68,0.00,,,0.00,165,WeatherCatV2.41B14,2017-03-24 14:28:00,
2017-03-24 09:33:00,62.6,51.9,29.95,SSW,206,6.0,14.0,68,0.00,,,0.00,232,WeatherCatV2.41B14,2017-03-24 14:33:00,
2017-03-24 09:38:00,63.2,52.0,29.95,SSW,211,7.0,12.0,67,0.00,,,0.00,279,WeatherCatV2.41B14,2017-03-24 14:38:00,
2017-03-24 09:43:00,63.7,52.1,29.95,SW,220,13.0,14.0,66,0.00,,,0.00,265,WeatherCatV2.41B14,2017-03-24 14:43:00,
2017-03-24 09:48:00,64.1,52.5,29.95,South,191,10.0,13.0,66,0.00,,,0.00,255,WeatherCatV2.41B14,2017-03-24 14:48:00,
2017-03-24 09:53:00,64.7,52.7,29.95,West,272,6.0,12.0,65,0.00,,,0.00,213,WeatherCatV2.41B14,2017-03-24 14:53:00,
2017-03-24 09:58:00,65.2,52.7,29.95,SSW,205,6.0,13.0,64,0.00,,,0.00,302,WeatherCatV2.41B14,2017-03-24 14:58:00,
2017-03-24 10:03:00,65.7,52.8,29.95,SW,217,10.0,17.0,63,0.00,,,0.00,244,WeatherCatV2.41B14,2017-03-24 15:03:00,
2017-03-24 10:08:00,66.1,53.1,29.95,WSW,239,10.0,10.0,63,0.00,,,0.00,343,WeatherCatV2.41B14,2017-03-24 15:08:00,
2017-03-24 10:13:00,66.5,52.6,29.95,SW,232,11.0,14.0,61,0.00,,,0.00,283,WeatherCatV2.41B14,2017-03-24 15:13:00,
2017-03-24 10:18:00,67.0,53.1,29.94,SSW,213,8.0,16.0,61,0.00,,,0.00,526,WeatherCatV2.41B14,2017-03-24 15:18:00,
2017-03-24 10:23:00,67.6,53.2,29.95,SSW,213,5.0,15.0,60,0.00,,,0.00,438,WeatherCatV2.41B14,2017-03-24 15:23:00,
2017-03-24 10:28:00,68.0,53.1,29.95,SSW,207,9.0,13.0,59,0.00,,,0.00,360,WeatherCatV2.41B14,2017-03-24 15:28:00,
2017-03-24 10:33:00,68.1,53.7,29.94,SSW,209,5.0,14.0,60,0.00,,,0.00,640,WeatherCatV2.41B14,2017-03-24 15:33:00,
2017-03-24 10:38:00,68.8,53.9,29.94,SW,218,7.0,12.0,59,0.00,,,0.00,619,WeatherCatV2.41B14,2017-03-24 15:38:00,
2017-03-24 10:43:00,69.0,53.6,29.94,WSW,240,9.0,15.0,58,0.00,,,0.00,661,WeatherCatV2.41B14,2017-03-24 15:43:00,
2017-03-24 10:48:00,69.7,53.8,29.94,SSW,203,7.0,16.0,57,0.00,,,0.00,677,WeatherCatV2.41B14,2017-03-24 15:48:00,
2017-03-24 10:53:00,70.3,53.8,29.94,South,189,6.0,19.0,56,0.00,,,0.00,682,WeatherCatV2.41B14,2017-03-24 15:53:00,
2017-03-24 10:58:00,70.9,53.9,29.94,SW,218,8.0,14.0,55,0.00,,,0.00,696,WeatherCatV2.41B14,2017-03-24 15:58:00,
2017-03-24 11:03:00,71.5,54.0,29.94,SW,220,6.0,12.0,54,0.00,,,0.00,700,WeatherCatV2.41B14,2017-03-24 16:03:00,
2017-03-24 11:08:00,71.8,53.7,29.94,SSW,202,9.0,25.0,53,0.00,,,0.00,707,WeatherCatV2.41B14,2017-03-24 16:08:00,
2017-03-24 11:13:00,71.9,54.3,29.94,SW,225,5.0,12.0,54,0.00,,,0.00,717,WeatherCatV2.41B14,2017-03-24 16:13:00,
2017-03-24 11:18:00,71.9,53.8,29.93,SSW,207,12.0,14.0,53,0.00,,,0.00,726,WeatherCatV2.41B14,2017-03-24 16:18:00,
2017-03-24 11:23:00,72.1,55.0,29.93,SW,219,11.0,16.0,55,0.00,,,0.00,707,WeatherCatV2.41B14,2017-03-24 16:23:00,
2017-03-24 11:28:00,72.6,54.5,29.93,SW,227,17.0,17.0,53,0.00,,,0.00,740,WeatherCatV2.41B14,2017-03-24 16:28:00,
2017-03-24 11:33:00,72.7,54.6,29.93,SSW,207,7.0,23.0,53,0.00,,,0.00,744,WeatherCatV2.41B14,2017-03-24 16:33:00,
2017-03-24 11:38:00,73.5,55.3,29.93,West,265,9.0,18.0,53,0.00,,,0.00,722,WeatherCatV2.41B14,2017-03-24 16:38:00,
2017-03-24 11:43:00,73.7,55.0,29.93,SSW,209,7.0,16.0,52,0.00,,,0.00,759,WeatherCatV2.41B14,2017-03-24 16:43:00,
2017-03-24 11:48:00,73.9,54.6,29.93,SSW,205,8.0,22.0,51,0.00,,,0.00,758,WeatherCatV2.41B14,2017-03-24 16:48:00,
2017-03-24 11:53:00,74.5,54.6,29.93,West,261,9.0,18.0,50,0.00,,,0.00,770,WeatherCatV2.41B14,2017-03-24 16:53:00,
2017-03-24 11:58:00,74.8,54.3,29.93,WSW,258,9.0,15.0,49,0.00,,,0.00,770,WeatherCatV2.41B14,2017-03-24 16:58:00,
2017-03-24 12:03:00,75.3,54.2,29.93,SSW,201,9.0,19.0,48,0.00,,,0.00,770,WeatherCatV2.41B14,2017-03-24 17:03:00,
2017-03-24 12:08:00,75.5,54.4,29.92,SSW,209,5.0,13.0,48,0.00,,,0.00,775,WeatherCatV2.41B14,2017-03-24 17:08:00,